Overview Statistics Trail Chart Weather Telemetry Raw packets
 

This is the latest recevied weather packets stored in our database for station/object W5GMO. If no packets are shown the sender has not sent any weather packets the latest 10 day(s).

<< 1 2 3 4 5 6 7 >>
Time Temp. Humidity Pressure Rain* Wind** Luminosity Snow
1788628215 28.33° C 1% 1012 hPa 0 mm - 527 W/m² -
1788627911 28.33° C 1% 1012.3 hPa 0 mm - 339 W/m² -
1788627606 28.33° C 1% 1012.2 hPa 0 mm - 304 W/m² -
1788627301 28.33° C 1% 1012.5 hPa 0 mm - 298 W/m² -
1788626996 28.33° C 1% 1012.2 hPa 0 mm - 377 W/m² -
1788626690 28.33° C 1% 1012.2 hPa 0 mm - 377 W/m² -
1788626385 27.78° C 1% 1012 hPa 0 mm - 430 W/m² -
1788626081 27.78° C 1% 1012.2 hPa 0 mm - 332 W/m² -
1788625777 27.22° C 1% 1012.5 hPa 0 mm - 305 W/m² -
1788625472 27.22° C 1% 1012.6 hPa 0 mm - 325 W/m² -
1788625167 27.78° C 1% 1012.4 hPa 0 mm - 276 W/m² -
1788624866 27.22° C 1% 1012.6 hPa 0 mm - 232 W/m² -
1788624564 27.78° C 1% 1012.5 hPa 0 mm - 220 W/m² -
1788624259 27.22° C 1% 1012.5 hPa 0 mm - 230 W/m² -
1788623958 26.67° C 1% 1012.6 hPa 0 mm - 363 W/m² -
1788623653 27.22° C 1% 1012.5 hPa 0 mm - 333 W/m² -
1788623352 27.22° C 1% 1012.5 hPa 0 mm - 228 W/m² -
1788623048 27.22° C 1% 1012.8 hPa 0 mm - 187 W/m² -
1788622742 27.22° C 1% 1012.6 hPa 0 mm - 174 W/m² -
1788622440 26.67° C 1% 1012.7 hPa 0 mm - 172 W/m² -
1788622138 26.67° C 1% 1012.8 hPa 0 mm - 197 W/m² -
1788621837 26.67° C 1% 1012.9 hPa 0 mm - 112 W/m² -
1788621533 26.67° C 1% 1013.1 hPa 0 mm - 111 W/m² -
1788621228 26.67° C 1% 1013.1 hPa 0 mm - 141 W/m² -
1788620923 26.67° C 1% 1013.1 hPa 0 mm - 140 W/m² -

* Rain latest hour (hover to see other rain measurements)
** Current wind speed in m/s (hover to see current wind gust speed)